Theta_e
313 310 311 312 310 307 299 291 289 300 295 288 281 282 285 292 288 290 288 287 285 283 284 282 283 284 287 294 292 289 291 284 283 290 295 296 293 293 291 287 286 287 288 292
313 311 311 311 310 307 295 289 289 299 295 283 282 286 288 289 288 288 286 286 287 287 283 280 285 287 292 293 291 291 295 285 281 285 291 293 292 294 289 287 287 287 288 292
313 312 312 311 310 309 296 291 287 291 290 286 284 284 285 288 294 289 289 286 288 285 283 284 283 285 291 293 292 303 295 286 283 281 285 289 290 293 295 288 285 287 289 294
312 312 312 312 311 308 296 290 286 287 283 285 285 285 288 287 288 292 289 284 286 284 279 281 282 286 287 291 295 291 289 283 283 286 288 291 292 293 295 292 291 289 293 294
312 312 312 312 310 306 295 289 288 288 284 284 284 288 287 289 289 289 288 286 288 285 281 282 281 284 283 284 288 287 286 284 286 288 293 294 294 297 297 297 297 295 295 295
313 313 313 312 309 303 293 295 293 290 285 283 284 288 291 290 290 291 292 290 287 286 287 289 289 288 288 287 285 285 284 284 284 283 291 292 291 298 301 302 309 306 293 298
312 312 312 311 310 304 296 294 292 287 284 284 285 290 293 292 292 289 292 290 286 291 295 293 289 285 287 289 289 288 283 282 282 284 288 284 295 302 305 308 309 310 310 313
311 312 312 312 311 308 298 297 295 293 287 289 289 291 290 291 292 292 290 292 292 294 291 285 282 281 282 287 289 287 288 283 281 282 284 290 299 298 297 299 302 308 308 312
311 311 312 311 311 308 300 299 301 296 289 288 292 287 288 285 283 287 289 293 296 295 290 288 282 279 281 280 283 287 285 285 283 283 282 286 294 299 303 303 297 306 308 312
311 311 311 311 311 308 301 297 298 297 291 290 291 285 285 288 285 284 286 290 294 297 287 284 284 281 286 282 279 280 281 282 280 281 283 292 298 301 305 296 296 302 308 312
310 311 311 311 312 309 301 300 299 297 293 289 292 293 289 288 287 283 287 288 292 291 286 284 286 284 285 287 288 282 280 280 280 283 285 286 301 302 296 298 302 304 309 310
310 311 310 311 312 310 306 300 304 303 297 292 294 296 298 297 295 290 290 292 293 293 286 285 287 286 290 290 286 293 285 289 287 289 289 298 300 302 304 304 302 304 308 311
310 310 310 310 312 311 306 298 302 300 294 289 288 291 296 297 298 299 290 294 297 296 296 289 287 285 289 288 289 293 296 296 290 290 295 297 302 304 305 306 305 307 309 312
310 310 310 310 311 311 306 298 300 294 293 288 287 296 295 298 297 298 299 298 299 300 299 290 287 287 294 292 293 293 295 295 292 292 294 299 302 303 304 306 309 309 310 310
310 310 310 310 310 310 307 306 303 299 295 288 286 291 296 296 296 297 298 296 293 295 295 293 290 295 295 295 295 291 295 295 293 291 296 298 298 302 305 306 307 308 308 308
310 311 310 310 309 310 304 300 303 304 299 294 285 290 293 297 297 295 294 296 292 298 297 296 298 300 295 290 290 294 298 300 300 297 299 300 302 304 305 306 309 309 310 310
310 310 309 309 309 303 300 294 298 303 302 294 288 286 293 296 294 294 295 296 296 298 299 296 295 295 295 291 288 294 297 300 301 302 301 298 301 300 303 308 311 312 311 311
309 309 308 308 308 306 302 305 307 302 297 298 289 287 290 294 291 291 293 292 294 294 294 296 294 295 293 287 293 297 298 299 300 301 303 302 303 304 306 309 310 309 310 311
309 309 308 305 302 299 303 309 308 303 300 290 292 284 283 294 291 290 292 291 289 293 290 291 294 291 287 291 295 296 297 297 297 301 303 302 302 303 303 304 306 308 308 307
309 304 301 298 304 311 309 300 297 298 297 294 289 290 288 291 290 289 288 289 286 284 288 291 287 289 296 297 299 299 298 299 300 298 298 299 299 300 300 301 304 307 307 305
300 301 301 304 310 302 299 295 294 295 291 294 294 290 290 294 290 289 291 286 286 282 289 287 284 282 292 296 298 299 299 298 297 299 299 300 300 299 300 300 302 304 303 303
304 306 306 303 300 298 294 292 294 293 291 296 294 292 291 293 294 291 291 289 291 285 293 288 282 285 292 295 297 299 299 298 298 299 298 299 299 300 300 299 300 301 302 303
308 305 301 298 298 290 290 287 287 288 297 297 295 292 291 292 293 289 289 290 289 295 289 287 287 290 294 295 298 298 299 298 298 298 298 298 298 299 298 297 299 300 300 301
303 301 290 296 295 296 298 296 297 300 301 297 296 294 293 295 295 292 289 291 289 283 283 285 290 291 293 295 297 298 296 297 296 297 297 296 295 295 296 297 297 298 298 299
302 300 288 293 297 298 301 304 302 304 303 298 298 297 298 295 292 291 290 286 284 282 280 291 293 293 293 293 295 297 297 296 296 296 296 296 296 294 293 294 294 295 297 297
304 299 294 295 293 296 297 296 295 303 303 304 298 293 292 292 293 289 286 283 278 283 288 293 293 292 291 292 294 293 298 298 298 296 296 296 296 295 293 294 293 294 294 294
304 298 302 298 295 295 294 295 298 304 303 299 299 293 292 296 292 288 288 285 290 292 292 293 292 290 289 290 292 291 294 299 299 297 296 296 297 296 295 293 293 293 294 294
Wind_Speed
14 19 17 15 16 21 9 2 3 4 3 6 2 2 2 5 5 6 5 5 4 2 2 3 4 3 3 9 7 6 3 2 4 8 4 3 3 9 7 7 5 2 2 9
13 16 16 13 12 11 3 2 3 5 3 3 3 5 4 4 5 4 2 3 2 1 1 3 3 4 3 10 7 6 7 3 4 4 6 6 6 2 4 5 3 7 7 8
11 13 14 14 11 10 4 3 4 6 6 2 3 4 4 5 7 4 3 2 4 4 2 5 1 3 3 8 5 9 3 1 4 5 4 3 4 4 1 6 5 4 6 6
10 12 13 12 10 10 3 4 1 2 4 5 4 3 4 3 6 5 5 2 2 3 2 2 0 3 5 6 8 6 4 4 3 7 10 4 5 5 3 5 5 6 6 8
9 10 10 11 10 8 5 3 3 4 1 3 2 4 4 5 5 2 4 4 4 2 4 2 2 1 1 4 5 6 5 3 3 5 7 7 5 8 7 5 2 6 5 7
8 10 8 8 9 6 3 2 2 4 4 3 2 2 3 4 4 2 3 2 2 2 2 3 5 6 4 4 2 3 3 2 1 5 4 5 4 5 2 0 7 3 4 5
8 8 7 6 5 5 3 1 3 4 1 3 1 3 5 5 2 3 4 2 2 3 2 1 3 1 5 5 9 7 2 1 1 4 5 4 5 6 5 11 9 8 8 11
6 7 6 4 3 4 3 1 3 2 2 2 2 5 4 5 6 2 2 2 1 1 3 3 5 4 4 8 12 12 9 2 3 3 3 4 1 6 5 5 1 11 13 15
5 6 5 1 4 5 3 1 1 3 3 3 2 2 2 2 2 5 4 4 2 4 2 2 4 5 6 5 2 5 6 3 2 3 4 7 2 9 10 5 3 12 13 14
4 5 3 3 6 5 3 0 1 3 1 2 4 2 2 1 1 3 5 4 1 2 1 3 6 5 4 4 7 7 6 3 8 3 4 1 10 17 10 6 3 17 12 10
3 4 4 4 7 7 4 1 1 3 1 4 4 4 4 2 2 1 4 3 3 1 4 3 3 4 5 4 6 6 8 8 6 4 3 3 16 3 6 4 8 9 10 7
2 1 2 3 7 9 4 2 1 1 1 4 2 6 8 7 8 3 2 3 5 5 3 3 3 4 3 4 5 1 3 3 3 2 5 2 4 8 3 5 5 7 7 10
2 2 3 3 6 9 3 3 2 1 1 4 3 6 3 3 12 8 3 3 3 4 6 3 2 5 1 3 2 3 4 5 1 2 2 1 9 7 10 10 8 9 6 10
4 5 4 4 5 9 5 2 3 3 2 1 7 4 7 3 5 10 14 7 3 2 3 3 2 3 4 1 4 4 4 1 4 5 3 1 5 12 13 13 11 15 12 13
6 6 5 5 5 8 2 1 3 3 2 2 5 7 6 6 5 9 10 7 2 3 2 1 2 2 3 2 3 3 7 4 2 3 1 2 5 8 14 12 14 11 12 14
6 7 7 6 6 8 2 1 1 3 2 0 4 4 5 6 4 2 3 4 4 1 1 2 3 4 3 3 3 6 8 6 7 3 5 3 7 5 11 10 12 10 10 10
8 8 7 7 8 2 2 4 3 5 2 1 4 6 4 4 4 4 3 3 1 2 2 3 2 4 5 3 4 12 9 7 7 7 4 3 6 5 10 8 8 9 6 9
8 7 6 5 5 4 3 2 6 5 2 1 1 5 5 5 3 4 3 4 3 5 3 2 3 3 3 4 9 11 10 7 7 10 6 2 4 6 8 7 8 11 12 13
9 8 9 3 1 2 2 7 8 1 1 1 1 2 3 4 2 2 4 2 4 3 3 2 2 3 5 4 6 11 11 7 8 9 7 9 9 8 11 11 11 10 12 12
11 3 2 2 2 8 9 1 1 0 1 1 3 2 3 1 2 2 1 3 2 3 2 1 4 3 4 7 4 5 7 8 9 8 10 10 11 10 11 12 10 10 10 11
1 2 2 2 2 1 1 2 3 2 2 3 3 4 1 2 2 0 2 2 2 3 3 3 3 3 3 6 5 5 6 7 7 9 7 7 7 9 8 9 10 11 12 11
3 2 4 2 2 2 2 2 0 3 3 3 3 3 4 1 1 2 2 3 2 2 1 2 2 4 3 4 5 7 7 7 7 10 12 11 12 10 9 9 9 9 9 8
2 2 3 2 3 1 3 2 3 2 3 4 3 1 2 2 3 3 2 3 2 1 3 2 2 2 3 4 3 5 6 6 8 10 10 9 10 11 12 11 11 11 10 10
2 3 1 3 3 3 4 5 3 4 3 5 2 3 2 1 2 2 3 1 2 3 1 1 2 1 3 3 2 3 4 6 7 8 9 10 10 9 11 11 9 10 12 11
1 2 2 4 4 4 3 1 0 0 3 3 3 3 2 1 2 1 3 2 1 2 3 2 1 1 1 2 2 1 2 3 4 5 6 8 9 8 8 9 9 10 9 10
2 2 3 3 2 3 3 1 1 1 3 3 3 3 2 1 2 2 1 4 1 3 3 3 1 2 2 3 3 1 2 1 3 4 4 5 6 6 5 5 7 8 8 7
3 4 3 2 2 3 3 2 2 2 3 1 1 3 2 3 2 3 1 4 3 3 2 1 1 2 2 4 4 3 1 3 1 1 2 2 3 4 4 6 6 5 5 5
Wind_Direction
339 344 341 342 347 342 34 26 59 313 11 48 35 85 305 333 344 27 55 83 94 118 17 40 55 50 62 347 332 357 322 116 272 243 277 298 215 188 158 129 220 200 160 269
337 342 338 347 355 20 348 35 276 319 42 83 357 320 335 22 16 24 70 111 97 48 105 82 36 342 98 12 19 349 333 350 358 15 355 10 53 27 115 109 78 195 163 262
340 337 339 345 357 6 78 39 16 339 40 43 70 15 359 354 356 57 8 88 66 109 94 4 127 349 356 342 330 351 10 222 169 186 233 244 330 316 84 118 127 208 222 297
342 334 342 343 354 358 89 29 31 191 1 1 13 4 344 12 7 4 11 40 159 141 74 55 34 350 334 321 0 13 68 256 221 256 259 246 248 256 244 179 183 166 246 222
335 338 342 340 359 359 74 90 58 13 48 325 20 9 358 24 336 2 6 37 349 113 140 149 229 102 317 262 341 9 5 266 293 287 277 222 262 242 239 232 215 258 250 278
333 343 350 347 8 38 81 335 65 102 340 1 64 52 6 30 357 33 83 246 87 54 209 199 207 205 212 212 202 329 329 332 304 259 351 332 278 234 243 351 50 354 197 253
332 345 347 343 43 76 118 203 111 78 17 52 350 325 331 346 19 283 308 317 61 344 36 38 93 142 252 232 239 181 237 214 274 244 355 206 165 43 26 115 63 13 322 315
336 343 345 350 70 90 90 165 87 81 77 53 274 345 336 343 317 271 262 318 40 291 51 52 4 344 330 239 226 204 189 167 255 193 192 296 309 28 350 10 328 11 333 326
332 340 335 27 112 121 83 38 65 95 130 207 129 261 330 277 298 327 277 342 16 70 68 80 238 211 240 257 244 157 156 126 85 327 183 199 83 324 309 276 272 355 341 336
324 330 339 110 138 139 100 25 75 97 124 279 153 196 220 338 97 238 293 308 68 24 113 231 234 217 218 246 165 161 134 116 216 256 268 304 354 319 301 132 258 319 328 330
308 335 83 125 150 161 104 94 350 112 148 269 181 190 186 220 170 192 287 355 36 285 227 225 233 214 234 265 132 181 159 151 195 187 236 208 352 9 75 296 301 297 322 320
261 100 117 128 160 179 122 103 66 57 158 245 228 233 222 201 209 149 240 206 180 216 213 227 253 229 228 271 149 148 149 179 164 157 139 124 343 70 326 311 283 310 315 351
218 164 174 160 166 181 126 119 125 66 348 311 350 237 231 183 219 183 190 241 169 177 187 202 231 250 141 206 114 167 137 53 160 112 23 345 50 22 15 359 346 322 338 18
204 175 174 167 171 175 150 126 153 99 97 314 280 304 288 196 183 194 216 263 353 202 223 119 231 254 240 56 65 59 358 11 334 69 27 308 353 12 1 358 13 29 18 34
190 171 167 157 166 183 144 177 187 162 109 275 278 295 259 254 212 228 225 231 195 240 307 231 249 208 313 0 75 61 341 1 9 85 74 312 279 333 352 358 12 16 30 23
181 163 164 155 158 141 131 273 19 177 176 12 319 293 288 313 304 325 47 151 184 181 10 344 0 16 12 47 80 355 8 16 48 349 289 242 280 282 357 354 354 15 35 36
177 163 164 159 160 139 195 190 206 163 154 108 310 314 272 291 347 351 1 20 76 81 61 34 3 357 25 31 37 330 358 5 22 3 3 28 6 333 318 339 359 7 36 52
154 147 148 145 164 286 298 258 189 154 116 180 293 277 334 7 353 344 7 14 31 16 75 43 4 356 30 45 331 340 355 343 10 4 18 358 298 323 350 359 17 39 19 31
143 133 126 106 158 221 247 131 120 94 141 244 265 170 273 360 347 300 356 23 58 306 61 45 59 20 33 278 311 350 349 354 328 344 28 24 22 20 5 3 18 39 34 27
131 99 153 216 209 129 126 6 91 279 229 160 236 194 263 71 349 346 45 20 44 53 306 357 58 75 353 343 339 333 7 20 16 7 16 12 10 6 23 9 359 16 29 35
117 183 197 93 110 87 152 202 215 153 242 209 239 189 246 313 74 300 29 134 34 57 322 73 19 5 334 340 358 17 25 31 25 34 25 13 26 7 13 22 15 11 21 15
170 131 112 121 160 186 237 211 200 220 244 185 198 215 192 294 98 88 346 99 62 82 46 65 28 259 296 5 11 16 12 15 27 36 31 25 32 23 27 31 21 21 19 14
172 190 151 144 141 196 220 203 288 259 210 182 171 142 153 16 47 66 82 77 62 142 46 68 217 283 331 11 26 43 23 28 33 36 29 21 24 27 33 31 22 19 25 20
207 191 238 227 178 225 189 203 226 234 175 139 142 102 95 121 71 352 81 337 76 64 72 77 263 271 313 1 20 71 40 37 34 29 31 28 27 22 27 23 16 25 24 15
238 94 229 224 256 264 272 250 289 167 118 123 101 61 22 96 102 65 109 52 77 132 177 240 195 202 110 10 36 355 51 58 48 26 23 22 21 23 29 16 15 19 25 26
218 218 248 249 28 321 350 3 308 205 141 112 90 135 233 144 117 88 83 122 218 236 206 225 135 334 359 338 337 319 198 89 55 41 14 3 21 11 352 21 33 12 18 19
216 247 198 169 216 214 233 201 235 150 143 150 202 133 147 133 133 112 192 165 185 180 203 196 152 48 358 317 312 357 326 133 123 300 315 302 310 329 359 13 344 6 8 1